Weather reports worldwide

Advertisment
Cardinham, United Kingdom (3823): temperature & dewpoint: 17.01.2019 02:00:00 - 23.01.2019 02:00:00 (GMT)Cardinham, United Kingdom (3823): temperature -20cm & temperature -100cm: 17.01.2019 02:00:00 - 23.01.2019 02:00:00 (GMT)Cardinham, United Kingdom (3823): wind speed & gusts: 17.01.2019 02:00:00 - 23.01.2019 02:00:00 (GMT)Cardinham, United Kingdom (3823): wind direction: 17.01.2019 02:00:00 - 23.01.2019 02:00:00 (GMT)Cardinham, United Kingdom (3823): reduced air pressure: 17.01.2019 02:00:00 - 23.01.2019 02:00:00 (GMT)Cardinham, United Kingdom (3823): visibility: 17.01.2019 02:00:00 - 23.01.2019 02:00:00 (GMT)Cardinham, United Kingdom (3823): precipitation: 17.01.2019 02:00:00 - 23.01.2019 02:00:00 (GMT)
Date & Time tt [°C] td [°C] tt -20cm [°C] tt -100cm [°C] ff [km/h] ff [kn] fx [km/h] fx [kn] dd ppp [hPa] vv [km] rr [mm]
23.01.2019 02:00:00 3,3 0,5 - - 24 13 - - NNW 1000,6 40 0,0
23.01.2019 01:00:00 3,5 2,2 - - 28 15 - - NW 1000,3 28 0,2
23.01.2019 00:00:00 2,9 1,4 - - 22 12 - - NNE 1000,1 25 0,4
22.01.2019 23:00:00 4,8 1,2 - - 22 12 - - NW 999,3 30 0,0
22.01.2019 22:00:00 5,1 2,7 - - 24 13 - - WNW 999,8 35 0,0
22.01.2019 21:00:00 5,1 2,0 - - 24 13 - - WNW 1000,1 40 0,0
22.01.2019 20:00:00 5,2 1,7 - - 22 12 - - WNW 1000,2 40 0,0
22.01.2019 19:00:00 5,2 1,4 - - 22 12 - - NW 1000,7 40 0,0
22.01.2019 18:00:00 5,3 2,3 - - 26 14 46 25 NW 1001,1 30 0,0
22.01.2019 17:00:00 5,3 2,2 - - 28 15 - - WNW 1001,2 45 0,0
22.01.2019 16:00:00 5,3 2,0 - - 24 13 46 25 WNW 1001,6 35 0,0
22.01.2019 15:00:00 5,5 2,2 - - 29 16 48 26 WNW 1001,7 40 0,0
22.01.2019 14:00:00 5,4 2,8 - - 26 14 46 25 WNW 1002,4 40 0,0
22.01.2019 13:00:00 6,1 3,0 - - 21 11 - - WNW 1003,0 40 0,2
22.01.2019 12:00:00 4,7 2,8 - - 21 11 - - W 1004,4 45 0,0
22.01.2019 11:00:00 4,9 2,8 - - 22 12 - - W 1004,9 35 0,0
22.01.2019 10:00:00 4,3 2,7 - - 9 5 - - WNW 1005,5 11 0,0
22.01.2019 09:00:00 4,0 1,7 7,4 8,5 15 8 - - W 1006,0 23 0,0
22.01.2019 08:00:00 3,8 -0,3 - - 13 7 - - WNW 1006,6 28 0,0
22.01.2019 07:00:00 4,1 1,0 - - 18 10 - - WNW 1007,3 29 0,0
22.01.2019 06:00:00 3,8 1,5 - - 18 10 - - WNW 1007,7 24 0,0
22.01.2019 05:00:00 3,8 1,5 - - 18 10 - - WNW 1007,7 28 0,2
22.01.2019 04:00:00 3,8 1,7 - - 26 14 - - WNW 1008,2 27 0,2
22.01.2019 03:00:00 2,7 1,1 - - 22 12 46 25 WNW 1008,9 30 0,8
22.01.2019 02:00:00 4,4 0,7 - - 22 12 - - NW 1009,2 20 0,0
22.01.2019 01:00:00 4,1 0,5 - - 24 13 - - NW 1009,6 19 0,0
22.01.2019 00:00:00 4,4 2,0 - - 28 15 - - NW 1009,8 18 0,2
21.01.2019 23:00:00 4,0 3,8 - - 15 8 57 31 NW 1010,0 9 2,4
21.01.2019 22:00:00 4,9 4,0 - - 28 15 - - WSW 1010,4 4,7 2,6
21.01.2019 21:00:00 5,8 5,4 - - 21 11 - - SSW 1011,4 11 0,6
21.01.2019 20:00:00 5,5 4,8 - - 21 11 - - SSW 1013,0 40 0,0
21.01.2019 19:00:00 5,3 4,4 - - 16 9 - - SSW 1014,8 30 0,0
21.01.2019 18:00:00 5,4 3,9 - - 15 8 - - S 1016,1 30 0,0
21.01.2019 17:00:00 6,1 3,8 - - 16 9 - - SW 1017,5 11 0,0
21.01.2019 16:00:00 6,1 3,9 - - 16 9 - - SSW 1019,1 50 0,0
21.01.2019 15:00:00 6,6 4,1 - - 15 8 - - SW 1019,7 45 0,0
21.01.2019 14:00:00 6,7 4,1 - - 22 12 - - SSW 1020,8 35 0,0
21.01.2019 13:00:00 6,7 4,8 - - 15 8 - - S 1022,0 23 0,0
21.01.2019 12:00:00 5,6 4,5 - - 13 7 - - S 1023,3 17 0,0
21.01.2019 11:00:00 5,0 4,0 - - 9 5 - - SSE 1024,2 16 0,0
21.01.2019 10:00:00 4,1 3,8 - - 4 2 - - SSE 1024,7 14 0,2
21.01.2019 09:00:00 2,5 2,5 7,7 8,7 4 2 - - SE 1025,2 17 0,0
21.01.2019 08:00:00 2,5 2,5 - - 4 2 - - SW 1025,1 11 0,0
21.01.2019 07:00:00 1,4 1,1 - - 4 2 - - S 1025,3 12 0,0
21.01.2019 06:00:00 1,9 1,6 - - 5 3 - - NW 1025,4 13 0,0
21.01.2019 05:00:00 2,1 1,9 - - 4 2 - - N 1025,3 19 0,0
21.01.2019 04:00:00 2,2 1,7 - - 8 4 - - N 1025,4 13 0,0
21.01.2019 03:00:00 3,2 2,5 - - 5 3 - - N 1025,7 12 0,0
21.01.2019 02:00:00 4,0 3,1 - - 11 6 - - NNW 1025,9 18 0,0
21.01.2019 01:00:00 4,4 3,3 - - 9 5 - - NNE 1025,8 21 0,0
21.01.2019 00:00:00 4,6 3,7 - - 8 4 - - NNE 1025,6 18 0,0
20.01.2019 23:00:00 4,5 3,8 - - 11 6 - - N 1025,2 15 0,0
20.01.2019 22:00:00 3,9 3,2 - - 11 6 - - N 1024,7 16 0,0
20.01.2019 21:00:00 3,4 2,5 - - 11 6 - - NNE 1024,3 19 0,0
20.01.2019 20:00:00 2,4 1,9 - - 11 6 - - N 1023,9 13 0,0
20.01.2019 19:00:00 3,0 2,2 - - 9 5 - - N 1023,3 12 0,0
20.01.2019 18:00:00 - - - - - - - - - - - -
20.01.2019 17:00:00 5,4 3,9 - - 15 8 - - NNW 1021,2 14 0,0
20.01.2019 16:00:00 - - - - - - - - - - - 0,0
20.01.2019 15:00:00 - - - - - - - - - - - 0,0
20.01.2019 14:00:00 - - - - - - - - - - - 0,0
20.01.2019 13:00:00 - - - - - - - - - - - 0,0
20.01.2019 12:00:00 - - - - - - - - - - - 0,0
20.01.2019 11:00:00 - - - - - - - - - - - 0,0
20.01.2019 10:00:00 - - - - - - - - - - - 0,0
20.01.2019 09:00:00 - - - - - - - - - - - 0,0
20.01.2019 08:00:00 - - - - - - - - - - - 0,0
20.01.2019 07:00:00 - - - - - - - - - - - 0,4
20.01.2019 06:00:00 - - - - - - - - - - - 0,0
20.01.2019 05:00:00 - - - - - - - - - - - 0,4
20.01.2019 04:00:00 - - - - - - - - - - - 0,6
20.01.2019 03:00:00 - - - - - - - - - - - 0,6
20.01.2019 02:00:00 - - - - - - - - - - - 0,2
20.01.2019 01:00:00 - - - - - - - - - - - 0,0
20.01.2019 00:00:00 - - - - - - - - - - - 0,0
19.01.2019 23:00:00 - - - - - - - - - - - 0,0
19.01.2019 22:00:00 - - - - - - - - - - - 0,0
19.01.2019 21:00:00 - - - - - - - - - - - 0,0
19.01.2019 20:00:00 - - - - - - - - - - - -
19.01.2019 19:00:00 - - - - - - - - - - - -
19.01.2019 18:00:00 - - - - - - - - - - - 0,0
19.01.2019 17:00:00 - - - - - - - - - - - -
19.01.2019 16:00:00 - - - - - - - - - - - 0,0
19.01.2019 15:00:00 - - - - - - - - - - - 0,0
19.01.2019 14:00:00 - - - - - - - - - - - 0,0
19.01.2019 13:00:00 - - - - - - - - - - - -
19.01.2019 12:00:00 - - - - - - - - - - - 0,2
19.01.2019 11:00:00 - - - - - - - - - - - 0,4
19.01.2019 10:00:00 - - - - - - - - - - - -
19.01.2019 09:00:00 - - - - - - - - - - - 0,4
19.01.2019 08:00:00 - - - - - - - - - - - 1,0
19.01.2019 07:00:00 - - - - - - - - - - - 1,4
19.01.2019 06:00:00 - - - - - - - - - - - 0,0
19.01.2019 05:00:00 - - - - - - - - - - - 1,0
19.01.2019 04:00:00 - - - - - - - - - - - 0,8
19.01.2019 03:00:00 - - - - - - - - - - - 1,0
19.01.2019 02:00:00 - - - - - - - - - - - 0,2
19.01.2019 01:00:00 - - - - - - - - - - - 0,0
19.01.2019 00:00:00 - - - - - - - - - - - 0,0
18.01.2019 23:00:00 - - - - - - - - - - - -
18.01.2019 22:00:00 - - - - - - - - - - - -
18.01.2019 21:00:00 - - - - - - - - - - - -
18.01.2019 20:00:00 - - - - - - - - - - - -
18.01.2019 19:00:00 - - - - - - - - - - - 0,0
18.01.2019 18:00:00 - - - - - - - - - - - -
18.01.2019 17:00:00 - - - - - - - - - - - -
18.01.2019 16:00:00 - - - - - - - - - - - -
18.01.2019 15:00:00 - - - - - - - - - - - -
18.01.2019 14:00:00 - - - - - - - - - - - -
18.01.2019 13:00:00 - - - - - - - - - - - -
18.01.2019 12:00:00 - - - - - - - - - - - -
18.01.2019 11:00:00 - - - - - - - - - - - -
18.01.2019 10:00:00 6,2 5,7 - - 35 19 48 26 SSE 1010,8 7 0,8
18.01.2019 09:00:00 5,8 5,2 8,0 8,7 28 15 48 26 SSE 1011,5 6 1,2
18.01.2019 08:00:00 5,0 4,9 - - 26 14 - - SSE 1012,0 3,6 0,2
18.01.2019 07:00:00 4,8 3,1 - - 28 15 - - S 1012,7 22 0,4
18.01.2019 06:00:00 5,2 1,5 - - 29 16 - - SSE 1013,0 40 0,0
18.01.2019 05:00:00 5,0 0,7 - - 22 12 - - SSE 1014,0 29 0,0
18.01.2019 04:00:00 4,4 0,6 - - 18 10 - - SSE 1015,0 40 0,0
18.01.2019 03:00:00 2,4 -0,5 - - 18 10 - - SE 1016,1 29 0,0
18.01.2019 02:00:00 1,8 -0,7 - - 18 10 - - SE 1017,2 23 0,0
18.01.2019 01:00:00 1,7 -0,9 - - 15 8 - - SE 1017,8 29 0,0
18.01.2019 00:00:00 2,2 -1,6 - - 13 7 - - SE 1018,3 28 0,0
17.01.2019 23:00:00 2,5 -0,9 - - 9 5 - - ESE 1019,0 28 0,0
17.01.2019 22:00:00 1,9 -0,9 - - 8 4 - - SE 1019,3 27 0,0
17.01.2019 21:00:00 1,9 -0,7 - - 8 4 - - ESE 1019,2 26 0,0
17.01.2019 20:00:00 2,3 -1,2 - - 4 2 - - ESE 1019,7 25 0,0
17.01.2019 19:00:00 2,5 -1,0 - - 5 3 - - E 1019,5 35 0,0
17.01.2019 18:00:00 2,6 -0,6 - - 9 5 - - NE 1019,3 22 0,0
17.01.2019 17:00:00 3,0 -0,4 - - 5 3 - - NNW 1018,8 27 0,0
17.01.2019 16:00:00 5,7 0,8 - - 11 6 - - NNW 1018,2 23 0,0
17.01.2019 15:00:00 5,7 -0,3 - - 11 6 - - N 1017,6 26 0,0
17.01.2019 14:00:00 5,9 -0,8 - - 16 9 - - N 1017,4 30 0,0
17.01.2019 13:00:00 6,4 -0,5 - - 16 9 - - N 1017,4 35 0,0
17.01.2019 12:00:00 5,8 -0,7 - - 24 13 - - N 1017,0 29 0,0
17.01.2019 11:00:00 5,7 0,7 - - 26 14 46 25 N 1016,9 22 0,0
17.01.2019 10:00:00 4,9 -0,4 - - 28 15 48 26 NNW 1015,6 30 0,0
17.01.2019 09:00:00 4,0 0,6 8,2 8,7 26 14 46 25 N 1014,6 17 0,0
17.01.2019 08:00:00 4,3 2,8 - - 28 15 46 25 N 1013,0 17 0,0
17.01.2019 07:00:00 4,2 3,2 - - 21 11 - - NNW 1011,8 23 0,2
17.01.2019 06:00:00 4,1 3,8 - - 13 7 - - NW 1010,8 13 0,6
17.01.2019 05:00:00 3,8 3,4 - - 16 9 - - NNW 1010,2 14 0,8
17.01.2019 04:00:00 3,5 2,6 - - 21 11 - - N 1009,7 7 1,2
17.01.2019 03:00:00 3,3 2,3 - - 21 11 59 32 NW 1009,0 40 0,8
17.01.2019 02:00:00 4,6 1,9 - - 28 15 54 29 NW 1008,4 24 0,0

tt = temperature
td = dewpoint
tt -20cm = temperature -20cm
tt -100cm = temperature -100cm
ff = wind speed
fx = gusts
dd = wind direction
ppp = reduced air pressure
vv = visibility
rr = precipitation

Next stations